Вернуться в каталог

CZ-6A DEB

АктивенSSO
NORAD 56686·DEBRIS·🇨🇳 China

Запущен Nov 11, 2022 с Taiyuan Satellite Launch Center

Loading…

Ближайшие Пролёты (ближайшие 24 часа)

TLE

УстаревающийSource: Space-Track

Эпоха: Sep 5, 2026, 05:34 UTC

1 56686U 22151AHN 26248.23261911  .00000108  00000-0  85354-4 0  9997
2 56686  98.8556 248.3601 0046229 115.4060 245.1905 14.09881450171373

Отслеживайте CZ-6A DEB в реальном времени с AllMySat

Download on the App Store